Regional Weather Roundup
Issued by NWS Wakefield, VA

Home | Current Version | Previous Version | Graphics & Text | Print | Product List | Glossary On
Versions: 1 2 3 4 5 6 7 8 9 10 11 12 13 14 15 16 17 18 19 20 21 22 23 24 25 26 27 28 29 30 31 32 33 34 35 36 37 38 39 40 41 42 43 44 45 46 47 48 49 50
000
ASUS41 KAKQ 250710
RWRAKQ

REGIONAL WEATHER ROUNDUP
NATIONAL WEATHER SERVICE WAKEFIELD VA
200 AM EST TUE NOV 25 2014

Note: "fair" indicates few or no clouds below 12,000 feet with no
significant weather and/or obstructions to visibility. * = Denotes
station may not report precipitation (e.g., rain,snow,etc.),
thunder or fog.

VAZ042-051-052>054-056-250800-
NORTHERN VIRGINIA

CITY           SKY/WX    TMP DP  RH WIND       PRES   REMARKS
WASH NATIONAL  CLOUDY    60  54  80 S3        29.82R
DULLES         CLOUDY    57  52  83 W3        29.82R
FORT BELVOIR   CLOUDY    64  58  82 SW5       29.83R
QUANTICO       CLOUDY    56  52  86 SW7       29.83R
FREDERICKSBRG* CLOUDY    66  60  81 SW8       29.83R
STAFFORD*      CLOUDY    65  58  79 SW3       29.87R
WARRENTON      CLOUDY    59  59 100 CALM      29.82R
CULPEPER*      CLOUDY    57  55  94 CALM      29.83R
MANASSAS*      CLOUDY    57  55  94 CALM      29.83R
LEESBURG*      CLOUDY    61  55  82 W3        29.83R
WINCHESTER     CLOUDY    57  34  41 NW14      29.85R
FRONT ROYAL*   CLOUDY    59  43  55 CALM      29.83R
LURAY*         CLOUDY    61  46  59 SW5       29.84R
$$

VAZ048-049-060>072-079>083-250800-
CENTRAL AND SOUTH CENTRAL VIRGINIA

CITY           SKY/WX    TMP DP  RH WIND       PRES   REMARKS
RICHMOND       CLOUDY    65  60  84 S7        29.87R
CHESTERFIELD*  CLOUDY    64  54  68 SW6       29.88R
PETERSBURG*    CLOUDY    65  62  88 S6        29.88S
HANOVER        CLOUDY    64  61  90 S7        29.87R
TAPPAHANNOCK*  CLOUDY    66  57  74 S8        29.87R
QUINTON*       CLOUDY    64  61  88 SE5       29.87R
CHARLOTTSVILLE CLOUDY    61  52  72 CALM      29.84R
GORDONSVILLE*  CLOUDY    58  54  86 SW5       29.83R
ORANGE*        CLOUDY    61  55  82 CALM      29.85R
LOUISA*        CLOUDY    63  59  88 CALM      29.84R
BUMPASS*       CLOUDY    63  59  87 S5        29.84R
FARMVILLE*     CLOUDY    66  61  84 SW8       29.84S
CREWE*         CLOUDY    63  60  91 SW3       29.87R
FORT PICKETT*  CLOUDY    63  62  94 SW12      29.88R
CHASE CITY*    CLOUDY    64  64  99 CALM      29.89R
CLARKSVILLE*     N/A    N/A N/A N/A SW8       29.88R
SOUTH HILL*    CLOUDY    62  60  94 S7        29.95R
LAWRENCEVILLE* CLOUDY    63  61  93 SW8       29.88F
$$

VAZ088>098-250800-
SOUTHEAST VIRGINIA

CITY           SKY/WX    TMP DP  RH WIND       PRES   REMARKS
NORFOLK        CLOUDY    71  56  58 SW12      29.91
VIRGINIA BEACH CLOUDY    67  59  75 SW9       29.90F
NORFOLK NAVAL  CLOUDY    68  55  63 S7        29.92S
WEST POINT*    CLOUDY    66  59  78 S6        29.89R
SALUDA*        FAIR      64  59  83 SW9       29.88R
NEWPORT NEWS   LGT RAIN  66  57  72 SW12      29.89S
LANGLEY AFB    CLOUDY    66  56  68 SW10G23   29.89F
FORT EUSTIS    CLOUDY    63  56  77 S5        29.88F
WILLIAMSBURG*  CLOUDY    68  61  77 SW9       29.89F
HR EXEC AP*    CLOUDY    61  55  82 SW9       29.94R
FRANKLIN*      CLOUDY    63  57  82 SW9       29.91S
WAKEFIELD        N/A     66  57  72 S9        29.89F
$$

VAZ020-022-025-037-045-250800-
WEST CENTRAL AND SOUTHWEST VIRGINIA

CITY           SKY/WX    TMP DP  RH WIND       PRES   REMARKS
STAUNTON*      CLOUDY    55  44  64 CALM      29.88R
WAYNESBORO*    CLOUDY    58  40  51 W3        29.86R
HOT SPRINGS VA CLOUDY    46  33  62 NW13G18   29.90R
LYNCHBURG      CLOUDY    58  52  80 SW6       29.89R
DANVILLE       CLOUDY    63  58  83 SW7       29.89R
SOUTH BOSTON*  CLOUDY    64  60  86 SW3       29.88R
MARTINSVILLE   CLOUDY    53  53 100 CALM      29.93R
ROANOKE        CLOUDY    57  42  57 W8        29.91R
BLACKSBURG     CLOUDY    54  37  54 W6        29.93S
DUBLIN*        CLOUDY    52  33  48 W6        29.94S
MARION*        CLOUDY    50  36  59 W10       29.98R
HILLSVILLE*    CLOUDY    50  39  65 W8        29.95R
RICHLANDS*     PTSUNNY   49  36  61 NW7       29.99R
WISE*          CLEAR     41  32  70 NW9       30.02R
ABINGDON*      MOCLDY    51  33  49 W6        29.99R
$$

MDZ021>025-VAZ099-100-250800-
SOUTHERN MARYLAND AND THE DELMARVA PENINSULA

CITY           SKY/WX    TMP DP  RH WIND       PRES   REMARKS
PATUXENT RIVER CLOUDY    65  59  81 S9        29.84R
BAY BRIDGE APT   N/A     64  57  77 W5        29.81R
LEONARDTOWN    CLOUDY    64  57  77 S3        29.85R
DOVER          CLOUDY    63  61  94 S10       29.79R
GEORGETOWN     CLOUDY    65  58  78 S12       29.84R
EASTON         CLOUDY    63  63 100 SW6       29.85R
CAMBRIDGE      CLOUDY    61  55  82 S6        29.84R
SALISBURY      NOT AVBL
OCEAN CITY     NOT AVBL
WALLOPS ISLAND CLOUDY    61  57  87 SW9       29.90R
ACCOMACK*      CLOUDY    64  54  68 SW13G20   29.90R
$$

NCZ012>017-030>032-250800-
NORTH CENTRAL AND EASTERN NORTH CAROLINA

CITY           SKY/WX    TMP DP  RH WIND       PRES   REMARKS
ROANOKE RAPIDS CLOUDY    61  55  82 S8        29.90F
RALEIGH        CLOUDY    63  57  81 SW10      29.95R
ELIZABETH CITY LGT RAIN  69  61  75 S8        29.93F
AHOSKIE*       CLOUDY    61  56  83 CALM      29.92R
EDENTON*       CLOUDY    65  60  86 SW6       29.93S
CURRITUCK*     CLOUDY    67  59  76 SW8       29.94S
KILL DEVIL HLS CLOUDY    62  60  94 SW6       29.94S
MANTEO         CLOUDY    60  59  98 S12       29.96R
CAPE HATTERAS  PTCLDY    66  65  96 SW8       29.98  FOG
TARBORO*       CLOUDY    64  57  80 S5        29.93S
GOLDSBORO      CLOUDY    65  64  98 VRB1      29.94R
WASHINGTON     CLOUDY    65  61  87 SW6       29.95R
GREENVILLE     CLOUDY    64  61  88 S7        29.95S
NEW BERN       MOCLDY    68  62  81 S6        29.98R
WILMINGTON     CLOUDY    67  64  90 S7        29.99R
$$

VAZ048-250800-
ELSEWHERE

CITY           SKY/WX    TMP DP  RH WIND       PRES   REMARKS
HARRISBURG PA  CLOUDY    56  34  43 NW8       29.81R
BALTIMORE      CLOUDY    62  54  74 W5        29.80R
ANNAPOLIS      CLOUDY    60  55  83 CALM      29.81R
ANDREWS AFB    CLOUDY    63  59  86 SW5       29.82R
PHILADELPHIA   CLOUDY    63  57  81 SW12      29.79R
WILDWOOD NJ*   CLOUDY    63  55  77 S13         N/A
HENDERSON NC   CLOUDY    64  60  89 S13       29.91R
GREENSBORO     CLOUDY    63  61  93 W6        29.90R
ROCKY MOUNT    CLOUDY    61  57  87 S5        29.92F
$$

VAZ100-250800-
MARINE

STATION/POSITION TIME  TEMP    WIND        PRES    WAVE   SWELL
                       AIR SEA DIR/SP/G            HT/PER HT/PER
                 (UTC) (F)     (DEG/KT/KT) (MB)    (FT/S) (FT/S)
CAPE MAY NJ      0700   63 51  190/ 10/ 15 1009.5R
LEWES DE         0700   66 50  210/  7/ 13 1010.0R
15NM E FENWICK I 0700   57 54              1010.7R   7/ 9
OCEAN-CITY-INLET 0700   56 50  210/ 12/ 15 1010.7R
WACHAPREAGUE VA  0700   59 53  210/  4/  8 1012.5R
THOMAS POINT MD  0700   59 48  230/  8/  8 1010.8R
GOOSES REEF MD   0700   56     190/  6/  8 1010.2R
COVE POINT MD    0700   60     190/ 14/ 15 1010.1R
SOLOMONS ISLAND  0700      50                N/A
BISHOPS HEAD MD  0700   58 52  200/ 19/ 23 1010.0R
PINEY POINT MD   0700          220/ 11/ 12   N/A
POTOMAC MD       0700   58     200/  8/ 12 1009.9R
CAMBRIDGE MD     0700   61 44  180/  6/ 12 1009.9R
LEWISETTA VA     0700   64 49  200/ 10/ 12 1010.6R
RAPPAHANNOCK LGT 0700          190/ 16/ 16 1012.5F
STINGRAY PT      0700   61     200/ 10/ 14 1012.4F
YORK RVR RNG VA  0700   63     240/ 16/ 20 1011.5F
YORKTOWN VA      0700   65 51  210/ 13/ 17 1011.5F
JAMESTOWN VA     0700   63     220/ 12/ 16   N/A
DOMINION TERM VA 0700   60     210/ 11/ 13 1012.6R
KIPTOPEKE VA     0700      56  210/ 10/ 13   N/A
CHES BAY BRIDGE  0700   65 53  200/ 16/ 19 1012.2R
CAPE HENRY VA    0700   67     200/  9/ 14 1011.7F
CHESAPEAKE LGHT  0600   63     220/ 19/ 19 1013.0R
WILLOUBY STN VA  0700   65     210/ 13/ 14 1011.3S
S CRANEY ISL VA  0700          200/  7/ 11 1012.3F
CAPE HENRY BUOY  0700      56                N/A     4/ 9   2/11
1ST LANDING BUOY 0700   63     220/ 12/ 14 1012.6S
CAPE CHARLES BUO 0700      55                N/A     4/10   3/10
64NM E OF VA BCH 0700   67 63  210/ 14/ 17 1013.3R   8/10   7/10
DUCK PIER NC     0700   65 58  210/ 10/ 13 1013.1R
44100 DUCK FRF   0700      59                N/A     5/ 9   2/11
44056 DUCK FRF   0700      58                N/A     4/10   2/11
OREGON INLET NC  0700   57 58  200/ 12/ 13 1014.5R
HATTERAS NC      0700   67 62  210/  8/ 11 1015.6R
DIAMOND SHLS NC  0700   73     220/ 16/ 17 1015.2R   7/ 9   5/ 9
CAPE LOOKOUT NC  0600   65     200/  9/ 12 1015.2R
$$


USA.gov is the U.S. government's official web portal to all federal, state and local government web resources and services.